Weather History for KGPI - June, 2014

Change the Weather History Date:

Thursday, June 5, 2014

  Actual Average Record
Temperature  
Mean Temperature 57 °F 56 °F  
Max Temperature 73 °F 70 °F 87 °F (1957)
Min Temperature 40 °F 43 °F 32 °F (2001)
Degree Days  
Heating Degree Days 8 9  
Month to date heating degree days 38 46  
Since 1 June heating degree days 38 46  
Since 1 July heating degree days 7983 7869  
Cooling Degree Days 0 0  
Month to date cooling degree days 0 0  
Year to date cooling degree days 0 3  
Since 1 June cooling degree days 0 0  
Growing Degree Days 6 (Base 50)    
Moisture  
Dew Point 39 °F    
Average Humidity 58    
Maximum Humidity 93    
Minimum Humidity 22    
Precipitation  
Precipitation 0.00 in 0.09 in 0.72 in (2012)
Month to date precipitation 0.43 0.45  
Year to date precipitation 7.68 7.06  
Snow  
Snow 0.00 in - - ()
Month to date snowfall 0.0  
Year to date snowfall 38.2  
Since 1 July snowfall 71.7  
Snow Depth 0.00 in    
Sea Level Pressure  
Sea Level Pressure 29.90 in    
Wind  
Wind Speed 6 mph (North)    
Max Wind Speed 21 mph    
Max Gust Speed 24 mph    
Visibility 10 miles    
Events      
T = Trace of Precipitation, MM = Missing Value Source: NWS Daily Summary

Daily Weather History Graph

Daily Weather History Graph

Search for Another Location

Airport or City:

Trip Planner

Search our weather history database for the weather conditions in past years. The results will help you decide how hot, cold, wet, or windy it might be!

Date:

Astronomy

Jun. 05, 2014 Rise Set
Actual Time 5:38 AM MDT 9:33 PM MDT
Civil Twilight 4:57 AM MDT 10:14 PM MDT
Nautical Twilight 4:01 AM MDT 11:10 PM MDT
Astronomical Twilight 2:32 AM MDT 12:41 AM MDT
Moon 1:25 PM MDT (6/5) 1:38 AM MDT (6/5)
Length of Visible Light 17h 16m
Length of Day
15h 55m
Waxing Crescent, 49% of the Moon is Illuminated
Jun 5
Waxing Crescent
Jun 5
First Quarter
Jun 12
Full
Jun 19
Last Quarter
Jun 27
New

Hourly Weather History & Observations

Time (MDT) Temp. Windchill Dew Point Humidity Pressure Visibility Wind Dir Wind Speed Gust Speed Precip Events Conditions
12:55 AM 55.9 °F - 39.9 °F 55% 29.86 in 10.0 mi SE 4.6 mph - N/A   Clear
1:55 AM 46.9 °F - 42.1 °F 83% 29.87 in 10.0 mi North 4.6 mph - N/A   Clear
2:55 AM 46.0 °F 43.9 °F 41.0 °F 83% 29.86 in 10.0 mi West 4.6 mph - N/A   Clear
3:55 AM 46.9 °F - 41.0 °F 80% 29.84 in 10.0 mi SW 4.6 mph - N/A   Clear
4:55 AM 42.1 °F - 39.9 °F 92% 29.85 in 10.0 mi Calm Calm - N/A   Clear
5:55 AM 41.0 °F 37.1 °F 39.0 °F 93% 29.86 in 10.0 mi NNE 5.8 mph - N/A   Clear
6:55 AM 45.0 °F 43.5 °F 42.1 °F 90% 29.87 in 10.0 mi NNE 3.5 mph - N/A   Clear
7:55 AM 51.1 °F - 45.0 °F 80% 29.88 in 10.0 mi Calm Calm - N/A   Clear
8:55 AM 55.0 °F - 46.9 °F 74% 29.89 in 10.0 mi NNE 4.6 mph - N/A   Clear
9:55 AM 60.1 °F - 45.0 °F 57% 29.90 in 10.0 mi ENE 5.8 mph - N/A   Mostly Cloudy
10:55 AM 62.1 °F - 45.0 °F 53% 29.91 in 10.0 mi NNE 9.2 mph - N/A   Scattered Clouds
11:55 AM 64.9 °F - 44.1 °F 47% 29.91 in 10.0 mi North 5.8 mph - N/A   Scattered Clouds
12:55 PM 66.9 °F - 41.0 °F 39% 29.89 in 10.0 mi Calm Calm - N/A   Clear
1:55 PM 66.0 °F - 42.1 °F 42% 29.91 in 10.0 mi NNE 3.5 mph - N/A   Overcast
2:55 PM 66.9 °F - 41.0 °F 39% 29.91 in 10.0 mi NNE 5.8 mph - N/A   Overcast
3:55 PM 69.1 °F - 35.1 °F 29% 29.90 in 10.0 mi Variable 4.6 mph - N/A   Overcast
4:55 PM 68.0 °F - 34.0 °F 28% 29.91 in 10.0 mi West 8.1 mph 16.1 mph N/A   Scattered Clouds
5:55 PM 70.0 °F - 33.1 °F 26% 29.91 in 10.0 mi WNW 10.4 mph - N/A   Mostly Cloudy
6:55 PM 68.0 °F - 28.9 °F 23% 29.91 in 10.0 mi West 6.9 mph - N/A   Partly Cloudy
7:55 PM 68.0 °F - 30.9 °F 25% 29.91 in 10.0 mi West 6.9 mph - N/A   Clear
8:55 PM 62.1 °F - 30.9 °F 31% 29.92 in 10.0 mi WNW 6.9 mph - N/A   Scattered Clouds
9:55 PM 54.0 °F - 39.0 °F 57% 29.95 in 10.0 mi NNE 9.2 mph - N/A   Scattered Clouds
10:55 PM 54.0 °F - 37.0 °F 53% 29.96 in 10.0 mi North 10.4 mph - N/A   Mostly Cloudy
11:55 PM 54.0 °F - 36.0 °F 51% 29.96 in 10.0 mi North 16.1 mph - N/A   Clear